Location: Buisson
(44.2787°N, 4.9969°E)
Time: 11:30:09
(UTC+00:00)

Envisat - Visible Passes

Search period start: 27 September 2021 00:00
Search period end: 07 October 2021 00:00
Orbit: 764 x 766 km, 98.2° (Epoch: 27 September)

Date Brightness Start Highest point End Pass type
(mag) Time Alt. Az. Time Alt. Az. Time Alt. Az.
27 Sep 4.3 04:25:03 10° NNE 04:29:55 45° E 04:34:46 10° S visible
28 Sep 5.6 03:48:59 10° NE 03:52:49 21° E 03:56:36 10° SE visible
29 Sep 3.2 04:50:13 10° NNE 04:55:19 77° ESE 05:00:24 10° S visible
30 Sep 4.7 04:13:41 10° NNE 04:18:21 35° E 04:22:59 10° SSE visible
01 Oct 5.9 03:37:57 10° NE 03:41:10 17° E 03:44:22 10° SE visible
02 Oct 3.6 04:38:44 10° NNE 04:43:47 61° E 04:48:48 10° S visible
03 Oct 5.1 04:02:23 10° NE 04:06:45 28° E 04:11:06 10° SSE visible
04 Oct 6.1 03:27:11 10° ENE 03:29:31 13° E 03:31:50 10° ESE visible
04 Oct 3.0 05:04:02 10° N 05:09:08 79° WNW 05:14:13 10° SSW visible
05 Oct 4.1 04:27:18 10° NNE 04:32:14 48° E 04:37:08 10° S visible
06 Oct 5.5 03:51:10 10° NE 03:55:09 23° E 03:59:05 10° SE visible
